sat.trackr.live / text

‹ back to catalog

STARLINK-3290

NORAD 50828 · 2022-001AB

PAYLOAD ACTIVE UNKNOWN

§ Identity

Operator
Country
US
Launch date
2022-01-06
Launch site
AFETR
Launch vehicle
Mass (kg)
RCS (m²)

Purposes: comms

External: N2YO · Heavens-Above · Gunter

§ Orbital elements

Epoch: 2026-05-24T14:08:15.382752Z

Period
95.44 min
Inclination
53.2132°
Eccentricity
0.0000908
Mean motion
15.08803416 rev/d
Perigee alt
539.2 km
Apogee alt
540.5 km
Semi-major
6,918.0 km
B*
-2.7439e-4
RAAN
188.2880°
Arg perigee
92.8398°
Mean anomaly
267.2698°
Rev number
24,171

§ Raw data

STARLINK-32901 50828U 22001AB  26144.58906693 -.00004647  00000+0 -27439-3 0  99912 50828  53.2132 188.2880 0000908  92.8398 267.2698 15.08803416241713

JSON: /api/v1/satellites/50828 · /tle

For live sub-satellite position, see the globe view (requires WebGL).

§ Visibility from observer

Set your observer location to see the next 7 days of passes ≥ 10°. The values pass through the URL so the page stays shareable.

No JS? Fill the form by hand. The geolocation button needs JavaScript.